Regional Weather Roundup
Issued by NWS

Home | Current Version | Previous Version | Text Only | Print | Product List | Glossary On
Versions: 1 2 3 4 5 6 7 8 9 10 11 12 13 14 15 16 17 18 19 20 21 22 23 24 25 26 27 28 29 30 31 32 33 34 35 36 37 38 39 40 41 42 43 44 45 46 47 48 49 50
000
ASUS43 KLSX 261607
RWRMO

WEATHER SUMMARY FOR MISSOURI
NATIONAL WEATHER SERVICE SPRINGFIELD MO
1100 AM CDT SUN APR 26 2015

NOTE: "FAIR" INDICATES FEW OR NO CLOUDS BELOW 12,000 FEET WITH NO
       SIGNIFICANT WEATHER AND/OR OBSTRUCTIONS TO VISIBILITY.
       CURRENT SKY AND/OR WEATHER CONDITIONS ARE NOT AVAILABLE FOR
       CHILLICOTHE AND FARMINGTON.

MOZ001>031-035>038-043-044-053-054-261700-
...NORTHERN AND WESTERN MISSOURI...

CITY           SKY/WX    TMP DP  RH WIND       PRES   REMARKS
KANSAS CTY INT CLOUDY    50  42  74 E14       29.99R
KANSAS C DTWN  CLOUDY    51  42  71 E10       29.98R
LEE`S SUMMIT   CLOUDY    49  41  74 NE14      29.99R
ST JOSEPH      CLOUDY    50  41  71 E13       30.02R
CHILLICOTHE      N/A     55  39  54 E12       30.02R
KIRKSVILLE     SUNNY     54  39  57 NE9       30.02R

$$
MOZ066>068-077>081-088>096-101>105-261700-
...SOUTHWEST MISSOURI...

CITY           SKY/WX    TMP DP  RH WIND       PRES   REMARKS
SPRINGFIELD    CLOUDY    54  47  77 NE13      29.90R
JOPLIN         CLOUDY    55  49  80 NE12      29.89S

$$
MOZ032>034-039>042-045>050-055>058-069>072-261700-
...CENTRAL MISSOURI...

CITY           SKY/WX    TMP DP  RH WIND       PRES   REMARKS
COLUMBIA       PTSUNNY   53  44  71 NE13      29.97R
JEFFERSON CITY CLOUDY    53  42  66 NE10      29.97R
ROLLA          CLOUDY    48  44  86 NE10      29.93S
SEDALIA        CLOUDY    49  43  80 NE13      29.99R
WHITEMAN AFB   CLOUDY    49  44  83 E8        29.97R
WARRENSBURG    CLOUDY    50  43  76 E8        29.99R
OSAGE BEACH    CLOUDY    48  43  81 NE15      29.96R

$$
MOZ051-052-059>065-261700-
...EAST CENTRAL MISSOURI...

CITY           SKY/WX    TMP DP  RH WIND       PRES   REMARKS
ST LOUIS INTL  MOSUNNY   57  34  41 NE12      29.96R
SPIRIT OF STL  MOSUNNY   55  38  52 NE9       29.96R
ST CHARLES     SUNNY     56  37  49 NE13      29.96R

$$
MOZ072>076-082>087-097>100-106>115-261700-
...SOUTH CENTRAL AND SOUTHEAST MISSOURI...

CITY           SKY/WX    TMP DP  RH WIND       PRES   REMARKS
CAPE GIRARDEAU CLOUDY    53  46  77 N10       29.91R
FARMINGTON     CLOUDY    48  45  87 N7        29.96R
POPLAR BLUFF   CLOUDY    54  45  71 NE13      29.90R
WEST PLAINS    CLOUDY    49  44  83 NE9       29.92R

$$


USA.gov is the U.S. government's official web portal to all federal, state and local government web resources and services.